This demonstration page uses our WeatherBlox Daily Observations layout. Learn more.

Left ArrowRight Arrow

Hourly Observations for August 28, 2020

Temp ( °F °C ) Dew Point ( °F °C ) Humidity (%) Winds ( mph kmh ) Pressure ( in mb ) Visibility ( mi km ) Precip ( " mm )
12:15 am 00:15 Clear 75 24 75 24 100 100 S 3 6 29.93 1013 10 16.0934 N/A
12:35 am 00:35 Clear 75 24 75 24 100 100 SSE 3 6 29.92 1013 10 16.0934 N/A
12:55 am 00:55 Clear 75 24 75 24 100 100 SSE 3 6 29.93 1013 7 11.26538 N/A
1:15 am 01:15 Clear 75 24 75 24 100 100 SSE 3 6 29.93 1013 7 11.26538 N/A
1:35 am 01:35 Clear 75 24 75 24 100 100 S 3 6 29.93 1013 7 11.26538 N/A
1:55 am 01:55 Clear 73 23 73 23 100 100 SSE 5 7 29.92 1013 7 11.26538 N/A
2:15 am 02:15 Clear 73 23 73 23 100 100 SSE 3 6 29.91 1013 7 11.26538 N/A
2:35 am 02:35 Clear 75 24 75 24 100 100 SSE 3 6 29.91 1013 5 8.0467 N/A
2:55 am 02:55 Clear 75 24 75 24 100 100 SSE 6 9 29.9 1012 5 8.0467 N/A
3:15 am 03:15 Clear 73 23 73 23 100 100 S 5 7 29.9 1012 5 8.0467 N/A
3:35 am 03:35 Clear 73 23 73 23 100 100 S 3 6 29.89 1012 5 8.0467 N/A
3:55 am 03:55 Clear 73 23 73 23 100 100 Calm 29.88 1012 5 8.0467 N/A
4:15 am 04:15 Clear 73 23 73 23 100 100 Calm 29.88 1012 4 6.43736 N/A
4:35 am 04:35 Clear 73 23 73 23 100 100 S 5 7 29.87 1011 3 4.82802 N/A
4:55 am 04:55 Clear 73 23 73 23 100 100 S 3 6 29.87 1011 7 11.26538 N/A
5:15 am 05:15 Clear 73 23 73 23 100 100 SSE 3 6 29.87 1011 5 8.0467 N/A
5:35 am 05:35 Clear 73 23 73 23 100 100 SSE 6 9 29.86 1011 5 8.0467 N/A
5:55 am 05:55 Clear 73 23 73 23 100 100 SSE 5 7 29.86 1011 7 11.26538 N/A
6:15 am 06:15 Clear 73 23 73 23 100 100 S 5 7 29.86 1011 7 11.26538 N/A
6:35 am 06:35 Clear 73 23 73 23 100 100 Calm 29.86 1011 7 11.26538 N/A
6:55 am 06:55 Clear 73 23 73 23 100 100 SSE 5 7 29.86 1011 7 11.26538 N/A
7:15 am 07:15 Sunny 73 23 73 23 100 100 SSE 5 7 29.86 1011 5 8.0467 N/A
7:35 am 07:35 Sunny 73 23 73 23 100 100 Calm 29.88 1012 5 8.0467 N/A
7:55 am 07:55 Sunny 73 23 73 23 100 100 Calm 29.88 1012 4 6.43736 N/A
8:15 am 08:15 Sunny 73 23 73 23 100 100 Calm 29.89 1012 2.5 4.02335 N/A
8:35 am 08:35 Partly Cloudy 73 23 73 23 100 100 Calm 29.89 1012 5 8.0467 N/A
8:55 am 08:55 Partly Cloudy 75 24 75 24 100 100 ESE 3 6 29.9 1012 5 8.0467 N/A
9:15 am 09:15 Sunny 75 24 75 24 100 100 Calm 29.89 1012 7 11.26538 N/A
9:35 am 09:35 Sunny 77 25 77 25 100 100 SE 3 6 29.89 1012 7 11.26538 N/A
9:55 am 09:55 Partly Cloudy 77 25 77 25 100 100 Calm 29.88 1012 10 16.0934 N/A
10:15 am 10:15 Mostly Cloudy 77 25 77 25 100 100 SE 5 7 29.88 1012 10 16.0934 N/A
10:35 am 10:35 Partly Cloudy 77 25 77 25 100 100 SE 6 9 29.87 1012 10 16.0934 N/A
10:55 am 10:55 Sunny 79 26 79 26 100 100 SSE 7 11 29.86 1011 10 16.0934 N/A
11:15 am 11:15 Mostly Cloudy 81 27 81 27 100 100 SSE 8 13 29.86 1011 10 16.0934 N/A
11:35 am 11:35 Partly Cloudy 81 27 81 27 100 100 SE 9 15 29.85 1011 10 16.0934 N/A
11:55 am 11:55 Partly Cloudy 81 27 81 27 100 100 S 9 15 29.84 1010 10 16.0934 N/A
12:15 pm 12:15 Partly Cloudy 82 28 82 28 100 100 SSE 9 15 29.82 1010 10 16.0934 N/A
12:35 pm 12:35 Mostly Cloudy 82 28 81 27 94 94 SSE 9 15 29.82 1010 10 16.0934 N/A
12:55 pm 12:55 Mostly Cloudy 82 28 81 27 94 94 S 12 19 29.81 1010 10 16.0934 N/A
1:15 pm 13:15 Cloudy 81 27 81 27 100 100 S 12 19 29.83 1010 10 16.0934 N/A
1:35 pm 13:35 Mostly Cloudy 75 24 75 24 100 100 S 16 26 29.85 1011 5 8.0467 N/A
1:55 pm 13:55 Cloudy 72 22 72 22 100 100 SW 10 17 29.82 1010 5 8.0467 N/A
2:15 pm 14:15 Mostly Cloudy 72 22 72 22 100 100 S 7 11 29.8 1009 10 16.0934 N/A
2:35 pm 14:35 Partly Cloudy 75 24 75 24 100 100 SSW 10 17 29.8 1009 10 16.0934 N/A
2:55 pm 14:55 Partly Cloudy 75 24 75 24 100 100 S 13 20 29.79 1009 10 16.0934 N/A
3:15 pm 15:15 Partly Cloudy 81 27 79 26 94 94 SSW 8 13 29.77 1008 10 16.0934 N/A
3:35 pm 15:35 Sunny 81 27 77 25 89 89 S 9 15 29.75 1007 10 16.0934 N/A
3:55 pm 15:55 Sunny 81 27 77 25 89 89 S 9 15 29.76 1008 10 16.0934 N/A
4:15 pm 16:15 Sunny 81 27 79 26 94 94 SSE 8 13 29.75 1007 10 16.0934 N/A
4:35 pm 16:35 Sunny 81 27 79 26 94 94 S 8 13 29.74 1007 10 16.0934 N/A
4:55 pm 16:55 Mostly Cloudy 81 27 79 26 94 94 S 7 11 29.73 1007 10 16.0934 N/A
5:15 pm 17:15 Mostly Cloudy 81 27 81 27 100 100 S 7 11 29.73 1007 10 16.0934 N/A
5:35 pm 17:35 Partly Cloudy 81 27 81 27 100 100 S 8 13 29.72 1006 10 16.0934 N/A
5:55 pm 17:55 Sunny 81 27 81 27 100 100 SSE 8 13 29.72 1006 10 16.0934 N/A
6:15 pm 18:15 Sunny 82 28 81 27 94 94 SSE 10 17 29.71 1006 10 16.0934 N/A
6:35 pm 18:35 Sunny 81 27 81 27 100 100 SSE 7 11 29.71 1006 10 16.0934 N/A
6:55 pm 18:55 Sunny 81 27 79 26 94 94 SSE 7 11 29.71 1006 10 16.0934 N/A
7:15 pm 19:15 Sunny 81 27 81 27 100 100 SSE 6 9 29.7 1006 10 16.0934 N/A
7:35 pm 19:35 Sunny 79 26 79 26 100 100 SSE 5 7 29.71 1006 10 16.0934 N/A
7:55 pm 19:55 Sunny 79 26 79 26 100 100 SSE 5 7 29.7 1006 10 16.0934 N/A
8:15 pm 20:15 Sunny 79 26 79 26 100 100 Calm 29.71 1006 10 16.0934 N/A
8:35 pm 20:35 Clear 77 25 77 25 100 100 Calm 29.71 1006 10 16.0934 N/A
8:55 pm 20:55 Partly Cloudy 77 25 77 25 100 100 S 5 7 29.72 1007 10 16.0934 N/A
9:15 pm 21:15 Clear 75 24 75 24 100 100 SSE 3 6 29.73 1007 10 16.0934 N/A
9:35 pm 21:35 Clear 75 24 75 24 100 100 S 3 6 29.73 1007 10 16.0934 N/A
9:55 pm 21:55 Clear 73 23 73 23 100 100 S 5 7 29.73 1007 10 16.0934 N/A
10:15 pm 22:15 Clear 73 23 73 23 100 100 S 3 6 29.73 1007 10 16.0934 N/A
10:35 pm 22:35 Clear 73 23 73 23 100 100 SSE 6 9 29.71 1006 10 16.0934 N/A
10:55 pm 22:55 Clear 75 24 75 24 100 100 S 10 17 29.69 1005 10 16.0934 N/A
11:15 pm 23:15 Clear 73 23 73 23 100 100 S 9 15 29.69 1005 10 16.0934 N/A
11:35 pm 23:35 Clear 73 23 73 23 100 100 S 7 11 29.7 1006 10 16.0934 N/A
11:55 pm 23:55 Clear 72 22 72 22 100 100 S 7 11 29.71 1006 10 16.0934 N/A

Powered by AerisWeather